Location: Hope
(40.9110°N, 74.9680°W)
Time: 00:21:18
(UTC-04:00)

VELOX 1 - Pass Details

Date: 04 August 2021
Orbit: 626 x 643 km, 98.3° (Epoch: 19 September)

Event Time Altitude Azimuth Distance (km) Brightness Sun altitude
Exits shadow 03:50:54 - 147° (SSE) 2,714 ? -20.5°
Reaches altitude 10° 03:52:39 10° 142° (SE) 2,025 ? -20.3°
Maximum altitude 03:56:48 42° 71° (ENE) 913 ? -19.7°
Drops below altitude 10° 04:01:01 10° 1° (N) 2,046 ? -19.2°
Sets 04:03:18 0° 354° (N) 2,961 ? -18.9°
